Location: Bad Salzschlirf
(50.3750°N, 9.3000°E)
Time: 06:05:03
(UTC+01:00)

ISS - Pass Details

Date: 19 January 2021
Orbit: 418 x 421 km, 51.6° (Epoch: 23 January)

Event Time Altitude Azimuth Distance (km) Brightness Sun altitude
Rises 19:26:30 0° 223° (SW) 2,361 0.7 -23.7°
Reaches altitude 10° 19:28:43 10° 213° (SSW) 1,500 -0.5 -24.1°
Enters shadow 19:29:47 17° 202° (SSW) 1,129 -1.4 -24.2°
